DateTimeUTC,F1_A11,F1_S11,BsB_S11,BsG_S11,BsR_S11,BbsB_S11,BbsG_S11,BbsR_S11,BaB_A11,BaG_A11,BaR_A11,Tu_S11,T_S11,Uu_S11,U_S11,P_S11,T1_A11
2021-02-11T15:00:00Z,00000200,21000000,,,,,,,0000.64,0000.88,0000.45,15.5,23.2,,00.0,0649.7,30.9
2021-02-11T15:01:00Z,00000200,21000000,,,,,,,0003.46,0002.81,0002.54,15.5,23.2,,00.0,0649.7,30.9
2021-02-11T15:02:00Z,00000200,21000000,,,,,,,0000.72,0000.63,0000.46,15.5,23.2,,00.0,0649.7,30.9
2021-02-11T15:03:00Z,00000200,61000000,,,,,,,-001.05,-001.17,-000.84,15.5,23.2,,00.0,0649.7,30.9
2021-02-11T15:04:00Z,00000200,41000000,0000.47,-000.23,0000.45,-000.12,-000.02,-000.18,-000.21,-000.20,-000.15,15.5,22.9,,00.0,0650.7,30.8
2021-02-11T15:05:00Z,00000200,01000000,0000.69,0000.10,0000.15,0000.54,0000.24,0000.07,-000.54,-000.52,-000.10,15.4,22.8,,00.0,0650.7,30.8
2021-02-11T15:06:00Z,00000200,01000000,0000.82,0000.15,0000.17,-000.11,0000.19,-000.00,-000.65,-000.14,-000.39,15.4,22.8,,00.0,0650.7,30.8
2021-02-11T15:07:00Z,00000200,01000000,0000.90,0000.34,0000.05,0000.28,0000.28,0000.11,0000.20,0000.27,0000.12,15.4,22.8,,00.0,0650.7,30.8
2021-02-11T15:08:00Z,00000200,01000000,0000.24,0000.18,0000.06,0000.33,0000.28,0000.07,0000.23,-000.03,0000.07,15.5,22.8,,00.0,0650.7,30.9
2021-02-11T15:09:00Z,00000200,01000000,0000.26,-000.05,0000.28,-000.02,0000.23,0000.24,-000.02,0000.19,0000.30,15.6,22.8,,00.0,0650.7,30.9
2021-02-11T15:10:00Z,00000200,01000000,-000.49,0000.28,0000.46,-000.57,0000.29,-000.10,0000.02,-000.01,-000.26,15.7,22.9,,00.0,0650.7,30.9
2021-02-11T15:11:00Z,00000200,01000000,0001.11,0000.37,0000.12,0000.10,0000.23,0000.03,0000.33,0000.17,0000.32,15.8,22.9,,00.0,0650.6,30.9
2021-02-11T15:12:00Z,00000200,01000000,0000.92,0000.16,0000.27,-000.18,0000.11,-000.01,-000.30,-000.04,0000.01,15.9,23.0,,00.0,0650.6,30.9
2021-02-11T15:13:00Z,00000200,01000000,0000.23,0000.37,0000.07,0000.36,0000.12,0000.23,0000.24,-000.14,-000.09,15.9,23.0,,00.0,0650.6,30.9
2021-02-11T15:14:00Z,00000200,01000000,-000.32,0000.02,0000.00,-000.02,0000.09,0000.10,-000.06,-000.06,-000.21,15.9,23.0,,00.0,0650.6,30.9
2021-02-11T15:15:00Z,00000200,01000000,0000.77,0000.35,0000.29,0000.43,0000.18,0000.03,0000.11,0000.25,0000.30,15.9,23.0,,00.0,0650.6,30.9
2021-02-11T15:16:00Z,00000200,01000000,0000.60,0000.34,0000.03,0000.06,0000.19,-000.20,-000.12,0000.16,-000.42,15.8,23.0,,00.0,0650.6,30.9
2021-02-11T15:17:00Z,00000200,01000000,0000.56,0000.59,0000.03,0000.06,0000.19,-000.23,-000.01,-000.49,0000.29,15.8,22.9,,00.0,0650.6,30.9
2021-02-11T15:18:00Z,00000200,01000000,0001.50,0000.30,0000.49,-000.04,0000.04,-000.06,0000.16,0000.39,-000.05,15.7,22.9,,00.0,0650.6,30.9
2021-02-11T15:19:00Z,00000200,01000000,0000.25,0000.21,0000.25,0000.77,0000.26,0000.13,-000.04,-000.04,0000.24,15.7,22.9,,00.0,0650.6,30.9
2021-02-11T15:20:00Z,00000200,01000000,-000.03,0000.29,-000.01,0000.56,0000.00,0000.08,0000.12,0000.14,-000.27,15.7,22.9,,00.0,0650.6,30.9
2021-02-11T15:21:00Z,00000200,01000000,-000.08,0000.10,0000.28,-000.05,0000.28,0000.02,0000.20,0000.12,0000.28,15.7,22.8,,00.0,0650.7,30.9
2021-02-11T15:22:00Z,00000200,01000000,-000.02,0000.20,0000.30,0000.15,0000.11,0000.09,0000.00,-000.12,-000.10,15.7,22.8,,00.0,0650.7,30.9
2021-02-11T15:23:00Z,00000200,01000000,0000.72,0000.08,0000.00,0000.14,0000.16,0000.17,0000.03,0000.39,0000.45,15.8,22.9,,00.0,0650.7,30.9
2021-02-11T15:24:00Z,00000200,01000000,0000.49,0000.21,-000.16,-000.57,0000.13,-000.09,-000.02,0000.09,-000.42,15.8,22.9,,00.0,0650.7,30.9
2021-02-11T15:25:00Z,00000200,01000000,0000.43,0000.12,0000.36,0000.42,0000.17,0000.14,0000.15,-000.18,0000.12,15.9,23.0,,00.0,0650.6,30.9
2021-02-11T15:26:00Z,00000200,01000000,0000.54,0000.07,-000.01,0000.01,0000.02,-000.10,-000.24,0000.11,0000.01,15.9,23.0,,00.0,0650.6,30.9
2021-02-11T15:27:00Z,00000200,01000000,0000.94,0000.40,0000.29,0000.89,0000.23,0000.26,0000.11,0000.10,-000.10,15.9,23.0,,00.0,0650.6,30.9
2021-02-11T15:28:00Z,00000200,01000000,0000.42,0000.35,0000.36,0000.36,0000.31,0000.35,0000.06,-000.25,-000.04,15.9,23.0,,00.0,0650.7,30.9
2021-02-11T15:29:00Z,00000200,01000000,0000.18,0000.25,-000.16,0000.57,0000.18,0000.02,0000.17,0000.23,0000.19,15.9,23.0,,00.0,0650.7,30.9
2021-02-11T15:30:00Z,00000200,01000000,0000.07,0000.12,0000.02,0000.06,0000.18,-000.17,0000.58,0000.07,0000.46,15.8,23.0,,00.0,0650.8,30.9
2021-02-11T15:31:00Z,00000200,01000000,-000.32,0000.12,0000.19,0000.22,-000.08,0000.19,-000.21,0000.15,-000.29,15.8,22.9,,00.0,0650.8,30.9
2021-02-11T15:32:00Z,00000200,01000000,0000.73,-000.19,-000.18,0000.21,0000.28,-000.17,0000.42,-000.02,-000.06,15.7,22.9,,00.0,0650.8,30.9
2021-02-11T15:33:00Z,00000200,01000000,0000.78,0000.43,0000.16,0000.12,0000.18,0000.18,0000.03,0000.25,0000.23,15.7,22.9,,00.0,0650.8,30.9
2021-02-11T15:34:00Z,00000200,01000000,0000.66,0000.09,0000.42,0000.57,0000.12,0000.07,0000.41,0000.48,0000.24,15.6,22.9,,00.0,0650.8,30.9
2021-02-11T15:35:00Z,00000200,01000000,0000.40,0000.33,0000.01,0000.65,-000.05,0000.06,-000.04,0000.00,0000.51,15.6,22.9,,00.0,0650.8,30.9
2021-02-11T15:36:00Z,00000200,01000000,0000.25,0000.47,0000.20,-000.06,0000.15,0000.18,0000.53,0000.25,-000.06,15.6,22.8,,00.0,0650.8,30.9
2021-02-11T15:37:00Z,00000200,01000000,0000.26,-000.12,0000.20,-000.55,0000.23,-000.10,0000.31,-000.06,0000.25,15.6,22.8,,00.0,0650.8,30.9
2021-02-11T15:38:00Z,00000200,01000000,-000.26,-000.23,0000.19,0000.43,0000.14,-000.16,-000.25,0000.11,-000.14,15.7,22.9,,00.0,0650.8,30.9
2021-02-11T15:39:00Z,00000200,01000000,-000.50,0000.32,0000.13,-000.52,0000.06,-000.12,-000.09,0000.11,-000.03,15.8,22.9,,00.0,0650.8,30.9
2021-02-11T15:40:00Z,00000200,01000000,0000.38,0000.27,0000.43,0000.48,0000.30,0000.44,0000.20,0000.31,0000.06,15.9,23.0,,00.0,0650.8,30.9
2021-02-11T15:41:00Z,00000200,01000000,0000.90,0000.17,0000.57,0000.43,0000.40,0000.17,0000.15,0000.12,0000.41,16.0,23.0,,00.0,0650.8,31.0
2021-02-11T15:42:00Z,00000200,01000000,0000.40,0000.16,0000.14,-000.18,-000.06,0000.04,-000.20,0000.07,-000.05,16.1,23.1,,00.0,0650.9,31.0
2021-02-11T15:43:00Z,00000200,01000000,0000.42,0000.20,0000.15,-000.11,0000.07,0000.05,0000.32,0000.22,-000.06,16.2,23.1,,00.0,0650.8,31.0
2021-02-11T15:44:00Z,00000200,01000000,0000.66,0000.22,0000.26,0000.14,0000.27,0000.07,-000.12,-000.32,0000.18,16.2,23.2,,00.0,0650.9,31.0
2021-02-11T15:45:00Z,00000200,01000000,0000.08,0000.26,0000.13,0000.66,0000.26,-000.18,0000.17,0000.15,-000.07,16.2,23.2,,00.0,0650.9,31.0
2021-02-11T15:46:00Z,00000200,01000000,-000.64,0000.31,0000.53,-000.01,0000.14,0000.18,0000.16,0000.27,0000.27,16.2,23.2,,00.0,0650.9,31.0
2021-02-11T15:47:00Z,00000200,01000000,0000.41,0000.05,0000.28,0000.35,0000.17,0000.08,-000.13,-000.13,-000.34,16.1,23.2,,00.0,0650.9,31.0
2021-02-11T15:48:00Z,00000200,01000000,0000.84,0000.27,0000.19,-000.44,0000.18,0000.22,0000.11,0000.12,0000.05,16.1,23.1,,00.0,0650.9,30.9
2021-02-11T15:49:00Z,00000200,01000000,0000.81,0000.05,0000.12,0000.08,0000.09,-000.18,0000.32,-000.01,0000.16,16.0,23.1,,00.0,0650.9,30.9
2021-02-11T15:50:00Z,00000200,01000000,0000.48,-000.03,0000.02,-000.06,-000.07,0000.12,0000.08,0000.10,-000.12,16.0,23.1,,00.0,0650.9,30.9
2021-02-11T15:51:00Z,00000200,01000000,0000.68,0000.44,-000.05,0000.23,-000.05,0000.15,0000.36,0000.07,0000.52,16.0,23.1,,00.0,0650.9,30.9
2021-02-11T15:52:00Z,00000200,01000000,-000.20,0000.21,0000.46,0000.23,0000.12,0000.46,0000.16,0000.13,-000.02,16.0,23.1,,00.0,0650.9,30.9
2021-02-11T15:53:00Z,00000200,01000000,0001.03,-000.09,-000.08,0000.31,0000.20,0000.18,-000.03,0000.23,-000.18,16.1,23.1,,00.0,0650.9,30.9
2021-02-11T15:54:00Z,00000200,01000000,0000.73,-000.06,0000.23,0000.46,0000.37,0000.10,0000.16,-000.04,0000.42,16.1,23.1,,00.0,0650.9,30.9
2021-02-11T15:55:00Z,00000200,01000000,0000.33,0000.12,0000.40,0000.08,0000.22,-000.11,0000.10,0000.27,0000.36,16.2,23.2,,00.0,0650.9,30.9
2021-02-11T15:56:00Z,00000200,01000000,0000.68,0000.32,0000.23,0000.07,0000.06,0000.10,0000.15,0000.44,-000.37,16.2,23.2,,00.0,0651.0,30.9
2021-02-11T15:57:00Z,00000200,41000000,,,,,,,0001.67,0001.01,0001.35,16.3,23.2,,00.0,0651.1,30.9
2021-02-11T15:58:00Z,00000200,61000000,,,,,,,-000.83,-000.62,-000.77,15.9,23.3,,00.0,0650.0,30.9
2021-02-11T15:59:00Z,00000200,21000000,,,,,,,-000.69,-000.24,-000.51,15.8,23.4,,00.0,0650.0,30.9
